Terug naar catalogus

STARLINK-36742

ActiefCommunicatieVLEO
NORAD 67907·PAYLOAD·🇺🇸 United States

Gelanceerd Feb 22, 2026 vanaf Vandenberg Space Force Base

Loading…

Volgende Passages (komende 24 uur)

TLE

VersSource: CelesTrak SupGP

Epoch: Sep 15, 2026, 03:49 UTC

1 67907C 26036D   26258.15951389 -.00023136  00000+0 -83840-3 0  2580
2 67907  42.9996 255.5202 0001346 268.5842 173.5197 15.27573946    13

Volg STARLINK-36742 in realtime met AllMySat

Download on the App Store